N5AJY Weather Reports


time (UTC)temp
F
wind
direction
speed
knots
gust
knots
rain 1hr
in
rain 24hr
in
rain mn
in
humidity
%
barometer
mb
20260506050153 49 48 0.0 3.5 0.00 0.00 0.00 80 1008.5
20260506044654 49 23 0.0 1.7 0.00 0.00 0.00 80 1008.8
20260506044153 49 29 0.0 1.7 0.00 0.00 0.00 80 1008.9
20260506043654 49 45 0.0 1.7 0.00 0.00 0.00 80 1008.9
20260506043154 49 40 0.0 1.7 0.00 0.00 0.00 80 1008.9
20260506042653 49 35 0.0 1.7 0.00 0.00 0.00 80 1008.8
20260506042152 50 37 0.0 0.9 0.00 0.00 0.00 80 1008.9
20260506041654 50 29 0.0 0.9 0.00 0.00 0.00 81 1009.0
20260506041152 50 0 0.0 0.0 0.00 0.00 0.00 81 1008.8
20260506040653 50 54 0.0 0.9 0.00 0.00 0.00 81 1008.8
20260506040153 50 54 0.0 0.9 0.00 0.00 0.00 81 1009.0
20260506035653 50 0 0.0 0.0 0.00 0.00 0.00 81 1008.9
20260506035152 50 0 0.0 0.0 0.00 0.00 0.00 81 1008.8
20260506034654 50 0 0.0 0.0 0.00 0.00 0.00 81 1008.8
20260506034153 50 27 0.0 0.9 0.00 0.00 0.00 81 1008.8
20260506033654 50 27 0.0 0.9 0.00 0.00 0.00 81 1008.9
20260506033153 50 41 0.0 2.6 0.00 0.00 0.00 81 1008.8
20260506032654 50 41 0.0 2.6 0.00 0.00 0.00 81 1008.8
20260506032153 50 29 0.0 3.5 0.00 0.00 0.00 81 1008.9
20260506031704 50 29 0.0 3.5 0.00 0.00 0.00 81 1008.8
20260506031153 50 0 0.0 0.0 0.00 0.00 0.00 81 1008.5
20260506030654 50 347 0.0 1.7 0.00 0.00 0.00 81 1008.2
20260506030158 50 347 0.0 1.7 0.00 0.00 0.00 81 1008.2
20260506025654 50 26 0.0 1.7 0.00 0.00 0.00 81 1008.1
20260506025153 50 32 0.0 1.7 0.00 0.00 0.00 81 1007.8
20260506024655 50 45 0.0 0.9 0.00 0.00 0.00 81 1007.7
20260506024153 50 42 0.0 1.7 0.00 0.00 0.00 81 1007.6
20260506023654 50 43 0.0 1.7 0.00 0.00 0.00 81 1007.6
20260506023153 50 36 0.0 0.9 0.00 0.00 0.00 81 1007.4
20260506022653 50 20 0.0 0.9 0.00 0.00 0.00 81 1007.4
20260506022154 50 1 0.0 0.9 0.00 0.00 0.00 81 1007.2
20260506021653 50 27 0.0 3.5 0.00 0.00 0.00 81 1007.0
20260506021154 50 36 0.0 3.5 0.00 0.00 0.00 81 1006.9
20260506020653 50 0 0.0 0.0 0.00 0.00 0.00 82 1006.8
20260506020154 50 11 0.0 0.9 0.00 0.00 0.00 82 1006.6
20260506015709 50 26 0.0 0.9 0.00 0.00 0.00 82 1006.5
20260506015158 50 20 0.0 1.7 0.00 0.00 0.00 81 1006.4
20260506014153 50 39 0.0 2.6 0.00 0.00 0.00 81 1006.1
20260506013653 50 29 0.0 2.6 0.00 0.00 0.00 81 1006.1
20260506013154 50 22 0.0 1.7 0.00 0.00 0.00 80 1006.1
20260506012652 50 49 0.0 0.9 0.00 0.00 0.00 80 1005.9
20260506012153 50 42 0.0 3.5 0.00 0.00 0.00 80 1006.0
20260506011652 50 37 0.0 6.1 0.00 0.00 0.00 80 1006.0
20260506011153 50 46 0.0 6.1 0.00 0.00 0.00 80 1006.0
20260506010652 50 51 0.0 4.3 0.00 0.00 0.00 79 1005.8
20260506010154 50 39 0.0 0.9 0.00 0.00 0.00 79 1005.9
20260506005653 50 46 0.0 8.7 0.00 0.00 0.00 79 1005.9
20260506005154 50 46 0.0 8.7 0.00 0.00 0.00 79 1006.0
20260506004653 50 44 0.0 2.6 0.00 0.00 0.00 79 1006.0
20260506004154 50 54 0.0 0.9 0.00 0.00 0.00 79 1006.0
20260506003653 50 20 0.0 1.7 0.00 0.00 0.00 79 1005.9
20260506003154 50 47 0.0 6.1 0.00 0.00 0.00 78 1005.4
20260506002653 50 47 0.0 6.1 0.00 0.00 0.00 78 1005.4
20260506002154 50 37 0.0 3.5 0.00 0.00 0.00 78 1005.3
20260506001653 50 34 0.0 2.6 0.00 0.00 0.00 78 1005.5
20260506001154 51 41 0.0 2.6 0.00 0.00 0.00 78 1005.6
20260506000653 51 36 0.0 2.6 0.00 0.00 0.00 77 1005.6
20260506000152 51 42 0.0 2.6 0.00 0.00 0.00 77 1005.6
20260505235654 51 53 0.0 2.6 0.00 0.00 0.00 77 1005.7
20260505235153 51 42 0.0 1.7 0.00 0.00 0.00 77 1005.6
20260505234654 51 38 0.0 4.3 0.00 0.00 0.00 77 1005.5
20260505234153 51 39 0.0 4.3 0.00 0.00 0.00 77 1005.6
20260505233654 51 41 0.0 8.7 0.00 0.00 0.00 76 1005.4
20260505233153 51 40 0.9 13.0 0.00 0.00 0.00 76 1005.6
20260505232654 51 39 0.9 13.0 0.00 0.00 0.00 76 1005.5
20260505232153 51 29 0.0 3.5 0.00 0.00 0.00 76 1005.4
20260505231653 51 33 0.0 3.5 0.00 0.00 0.00 75 1005.1
20260505231153 52 42 0.0 8.7 0.00 0.00 0.00 74 1005.0
20260505230653 52 48 0.0 8.7 0.00 0.00 0.00 74 1004.9
20260505230154 52 47 0.0 2.6 0.00 0.00 0.00 74 1004.8
20260505225653 52 48 0.0 2.6 0.00 0.00 0.00 74 1004.4
20260505225154 52 32 0.0 1.7 0.00 0.00 0.00 75 1004.6
20260505224653 52 24 0.0 1.7 0.00 0.00 0.00 74 1004.7
20260505224154 52 16 0.0 2.6 0.00 0.00 0.00 74 1004.6
20260505223653 52 13 0.0 3.5 0.00 0.00 0.00 74 1004.5
20260505223154 52 18 0.0 3.5 0.00 0.00 0.00 73 1004.2
20260505222653 53 46 0.0 1.7 0.00 0.00 0.00 74 1004.1
20260505222154 52 38 0.0 7.8 0.00 0.00 0.00 74 1004.0
20260505221654 52 40 0.0 7.8 0.00 0.00 0.00 74 1004.1
20260505221152 52 43 0.0 3.5 0.00 0.00 0.00 74 1004.2
20260505220653 52 44 0.0 6.1 0.00 0.00 0.00 75 1004.4
20260505220153 52 39 0.0 6.1 0.00 0.00 0.00 75 1004.1
20260505215654 52 29 0.0 3.5 0.00 0.00 0.00 76 1003.9
20260505215153 53 32 0.0 3.5 0.00 0.00 0.00 76 1004.2
20260505214654 53 30 0.0 2.6 0.00 0.00 0.00 75 1004.4
20260505214153 53 35 0.0 0.9 0.00 0.00 0.00 76 1004.3
20260505213656 53 22 0.0 2.6 0.00 0.00 0.00 76 1004.1
20260505213156 53 23 0.0 3.5 0.00 0.00 0.00 76 1004.0
20260505212656 53 32 0.0 3.5 0.00 0.00 0.00 76 1004.0
20260505212153 53 33 0.0 8.7 0.00 0.00 0.00 77 1003.8
20260505211153 53 34 0.0 3.5 0.00 0.00 0.00 77 1003.7
20260505210654 53 46 0.0 6.1 0.00 0.00 0.00 78 1003.7
20260505210153 53 47 0.0 6.1 0.00 0.00 0.00 79 1003.9
20260505205654 53 38 0.0 1.7 0.00 0.00 0.00 80 1004.0
20260505205153 53 44 0.0 3.5 0.00 0.00 0.00 80 1004.2
20260505204153 53 18 0.0 4.3 0.00 0.00 0.00 81 1003.9
20260505203654 53 47 0.0 3.5 0.00 0.00 0.00 81 1003.8
20260505203153 53 54 0.0 7.0 0.00 0.00 0.00 82 1003.6
20260505202652 53 47 0.0 7.0 0.00 0.00 0.00 83 1003.5
20260505202153 53 38 0.0 6.1 0.00 0.00 0.00 82 1003.6
20260505201653 54 23 0.0 1.7 0.00 0.00 0.00 83 1003.6
20260505201154 54 38 0.0 2.6 0.00 0.00 0.00 83 1003.5
20260505200653 54 40 0.0 2.6 0.00 0.00 0.00 82 1003.6
20260505200155 54 34 0.0 5.2 0.00 0.00 0.00 82 1003.5
20260505195653 54 40 0.0 5.2 0.00 0.00 0.00 82 1003.7
20260505195154 54 43 0.0 5.2 0.00 0.00 0.00 83 1003.7
20260505194653 54 41 0.0 5.2 0.00 0.00 0.00 82 1003.6
20260505194152 54 44 0.0 2.6 0.00 0.00 0.00 83 1003.5
20260505193654 54 33 0.0 3.5 0.00 0.00 0.00 83 1003.4
20260505193153 54 36 0.0 3.5 0.00 0.00 0.00 83 1003.4
20260505192654 54 41 0.0 5.2 0.00 0.00 0.00 83 1003.5
20260505192153 54 38 0.0 5.2 0.00 0.00 0.00 84 1003.2
20260505191654 54 47 0.0 1.7 0.00 0.00 0.00 84 1003.2
20260505191153 54 36 0.0 4.3 0.00 0.00 0.00 84 1003.0
20260505190654 54 30 0.0 4.3 0.00 0.00 0.00 84 1003.0
20260505190153 55 23 0.0 1.7 0.00 0.00 0.00 84 1003.1
20260505185654 55 24 0.0 1.7 0.00 0.00 0.00 84 1003.0
20260505185153 55 35 0.0 4.3 0.00 0.00 0.00 85 1002.9
20260505184652 55 37 0.0 4.3 0.00 0.00 0.00 84 1002.9
20260505184154 55 47 0.0 4.3 0.00 0.00 0.00 84 1002.9
20260505183653 55 58 0.0 3.5 0.00 0.00 0.00 84 1003.0
20260505183154 55 49 0.0 3.5 0.00 0.00 0.00 85 1003.0
20260505182654 55 29 0.0 0.9 0.00 0.00 0.00 85 1003.1
20260505182153 55 32 0.0 6.1 0.00 0.00 0.00 85 1002.9
20260505181654 55 31 0.0 6.1 0.00 0.00 0.00 85 1002.7
20260505181153 55 35 0.0 2.6 0.00 0.00 0.00 85 1002.4
20260505180654 55 41 0.0 2.6 0.00 0.00 0.00 86 1002.0
20260505180153 55 43 0.0 7.8 0.00 0.00 0.00 86 1002.4
20260505175653 55 43 0.0 7.8 0.00 0.00 0.00 86 1002.3
20260505175154 55 47 0.0 1.7 0.00 0.00 0.00 86 1002.3
20260505174653 55 42 0.0 7.0 0.00 0.00 0.00 86 1002.3
20260505174154 55 41 0.0 7.0 0.00 0.00 0.00 86 1002.4
20260505173653 55 27 0.0 1.7 0.00 0.00 0.00 86 1002.3
20260505173154 55 34 0.0 2.6 0.00 0.00 0.00 86 1002.4
20260505172653 55 48 0.0 3.5 0.00 0.00 0.00 86 1002.2
20260505172158 55 39 0.0 3.5 0.00 0.00 0.00 86 1001.8
20260505171653 56 46 0.0 4.3 0.00 0.00 0.00 87 1001.9
20260505171155 56 44 0.0 4.3 0.00 0.00 0.00 86 1001.8
20260505170654 56 39 0.0 3.5 0.00 0.00 0.00 86 1001.7
20260505170152 56 42 0.0 7.8 0.00 0.00 0.00 86 1001.6
20260505165653 56 41 0.0 7.8 0.00 0.00 0.00 87 1001.6
20260505165153 57 36 0.0 4.3 0.00 0.00 0.00 86 1001.6
20260505164653 57 35 0.0 4.3 0.00 0.00 0.00 86 1001.5
20260505164154 57 44 0.0 9.6 0.00 0.00 0.00 86 1001.6
20260505163653 58 50 0.0 9.6 0.00 0.00 0.00 86 1001.4
20260505163154 58 35 0.0 1.7 0.00 0.00 0.00 86 1001.3
20260505162653 58 40 0.0 3.5 0.00 0.00 0.00 86 1001.3
20260505162154 59 38 0.0 3.5 0.00 0.00 0.00 86 1001.2
20260505161653 59 24 0.0 1.7 0.00 0.00 0.00 86 1001.1
20260505161154 59 28 0.0 1.7 0.00 0.00 0.00 86 1001.1
20260505160653 59 43 0.0 0.9 0.00 0.00 0.00 86 1001.0
20260505160154 60 51 0.0 0.9 0.00 0.00 0.00 87 1001.0
20260505153153 62 0 0.0 0.0 0.00 0.00 0.00 85 1000.6
20260505152654 64 28 0.0 2.6 0.00 0.00 0.00 84 1000.5
20260505152153 65 28 0.0 2.6 0.00 0.00 0.00 85 1000.3
20260505151655 65 0 0.0 0.0 0.00 0.00 0.00 86 1000.3
20260505151154 65 0 0.0 0.0 0.00 0.00 0.00 86 1000.3
20260505150655 66 0 0.0 0.0 0.00 0.00 0.00 86 1000.3
20260505150154 66 0 0.0 0.0 0.00 0.00 0.00 85 1000.2
20260505140155 68 0 0.0 0.0 0.00 0.00 0.00 82 999.7
20260505130154 64 0 0.0 0.0 0.00 0.00 0.00 86 999.6
20260505124655 64 0 0.0 0.0 0.00 0.00 0.00 86 999.7
20260505124154 64 0 0.0 0.0 0.00 0.00 0.00 86 999.7
20260505123653 64 0 0.0 0.0 0.00 0.00 0.00 86 999.6
20260505123155 64 0 0.0 0.0 0.00 0.00 0.00 86 999.5
20260505122653 64 0 0.0 0.0 0.00 0.00 0.00 86 999.6
20260505122155 64 0 0.0 0.0 0.00 0.00 0.00 86 999.6
20260505121654 64 0 0.0 0.0 0.00 0.00 0.00 86 999.6
20260505121156 64 0 0.0 0.0 0.00 0.00 0.00 86 999.5
20260505120654 64 0 0.0 0.0 0.00 0.00 0.00 86 999.4
20260505120157 64 0 0.0 0.0 0.00 0.00 0.00 86 999.3
20260505115155 64 0 0.0 0.0 0.00 0.00 0.00 86 999.3
20260505114655 64 0 0.0 0.0 0.00 0.00 0.00 86 999.3
20260505114155 64 0 0.0 0.0 0.00 0.00 0.00 86 999.4
20260505113657 64 0 0.0 0.0 0.00 0.00 0.00 86 999.4
20260505113154 64 0 0.0 0.0 0.00 0.00 0.00 86 999.4
20260505112655 64 0 0.0 0.0 0.00 0.00 0.00 86 999.4
20260505112154 64 0 0.0 0.0 0.00 0.00 0.00 86 999.4
20260505111655 64 0 0.0 0.0 0.00 0.00 0.00 86 999.3
20260505111155 64 0 0.0 0.0 0.00 0.00 0.00 86 999.1
20260505110654 64 0 0.0 0.0 0.00 0.00 0.00 86 999.0
20260505110154 64 0 0.0 0.0 0.00 0.00 0.00 86 998.9
20260505102154 64 52 0.0 0.9 0.00 0.00 0.00 86 998.6
20260505101655 64 0 0.0 0.0 0.00 0.00 0.00 86 998.6
20260505101154 64 0 0.0 0.0 0.00 0.00 0.00 86 998.4
20260505100655 64 76 0.0 0.9 0.00 0.00 0.00 86 998.5
20260505100154 64 74 0.0 2.6 0.00 0.00 0.00 86 998.5
20260505095656 64 76 0.0 2.6 0.00 0.00 0.00 86 998.4
20260505095154 64 90 0.0 0.9 0.00 0.00 0.00 86 998.5
20260505094155 64 86 0.0 1.7 0.00 0.00 0.00 87 998.5
20260505093654 64 86 0.0 1.7 0.00 0.00 0.00 87 998.3
20260505093155 64 80 0.0 0.9 0.00 0.00 0.00 87 998.4
20260505092654 64 80 0.0 0.9 0.00 0.00 0.00 87 998.5
20260505092156 64 0 0.0 0.0 0.00 0.00 0.00 87 998.5
20260505091654 64 0 0.0 0.0 0.00 0.00 0.00 87 998.5
20260505091201 64 99 0.0 2.6 0.00 0.00 0.00 87 998.5
20260505090654 64 99 0.0 2.6 0.00 0.00 0.00 87 998.5
20260505090153 64 0 0.0 0.0 0.00 0.00 0.00 87 998.5
20260505085654 64 76 0.0 0.9 0.00 0.00 0.00 87 998.6
20260505085156 64 66 0.0 0.9 0.00 0.00 0.00 87 998.6
20260505084655 64 56 0.0 0.9 0.00 0.00 0.00 87 998.5
20260505084154 64 86 0.0 0.9 0.00 0.00 0.00 87 998.7
20260505083655 64 84 0.0 0.9 0.00 0.00 0.00 87 998.7
20260505083154 63 80 0.0 0.9 0.00 0.00 0.00 87 998.7
20260505082655 63 0 0.0 0.0 0.00 0.00 0.00 87 998.7
20260505082154 63 0 0.0 0.0 0.00 0.00 0.00 87 998.8
20260505081655 63 0 0.0 0.0 0.00 0.00 0.00 86 998.8
20260505081154 63 0 0.0 0.0 0.00 0.00 0.00 86 998.9
20260505080655 64 0 0.0 0.0 0.00 0.00 0.00 85 998.9
20260505080154 64 63 0.0 0.9 0.00 0.00 0.00 85 999.0
20260505075653 64 69 0.0 0.9 0.00 0.00 0.00 84 999.1
20260505075154 64 72 0.0 2.6 0.00 0.00 0.00 83 999.0
20260505074654 65 73 0.0 2.6 0.00 0.00 0.00 82 999.2
20260505074155 66 84 0.0 0.9 0.00 0.00 0.00 81 999.4
20260505073654 66 0 0.0 0.0 0.00 0.00 0.00 80 999.5
20260505073155 66 0 0.0 0.0 0.00 0.00 0.00 80 999.5
20260505072654 66 0 0.0 0.0 0.00 0.00 0.00 80 999.7
20260505072155 67 0 0.0 0.0 0.00 0.00 0.00 80 999.7
20260505071654 67 0 0.0 0.0 0.00 0.00 0.00 79 999.8
20260505071153 67 0 0.0 0.0 0.00 0.00 0.00 79 999.9
20260505070655 67 0 0.0 0.0 0.00 0.00 0.00 79 999.9
20260505070154 68 0 0.0 0.0 0.00 0.00 0.00 78 1000.0
20260505065656 68 0 0.0 0.0 0.00 0.00 0.00 77 1000.1
20260505065154 68 0 0.0 0.0 0.00 0.00 0.00 76 1000.0
20260505064655 68 0 0.0 0.0 0.00 0.00 0.00 75 999.9
20260505064154 68 0 0.0 0.0 0.00 0.00 0.00 75 1000.1
20260505063655 68 0 0.0 0.0 0.00 0.00 0.00 74 1000.1
20260505063154 68 0 0.0 0.0 0.00 0.00 0.00 74 1000.1
20260505062653 68 0 0.0 0.0 0.00 0.00 0.00 74 1000.1
20260505062155 68 0 0.0 0.0 0.00 0.00 0.00 73 999.7
20260505061654 68 0 0.0 0.0 0.00 0.00 0.00 73 999.5
20260505061154 68 0 0.0 0.0 0.00 0.00 0.00 73 999.3
20260505060653 68 0 0.0 0.0 0.00 0.00 0.00 73 999.3
20260505060155 68 0 0.0 0.0 0.00 0.00 0.00 73 999.2
20260505055654 68 0 0.0 0.0 0.00 0.00 0.00 73 999.2
20260505055155 68 0 0.0 0.0 0.00 0.00 0.00 72 998.9
20260505054654 68 0 0.0 0.0 0.00 0.00 0.00 72 998.9
20260505054155 68 0 0.0 0.0 0.00 0.00 0.00 72 999.2
20260505053654 68 0 0.0 0.0 0.00 0.00 0.00 72 998.9
20260505053155 68 0 0.0 0.0 0.00 0.00 0.00 72 999.0
20260505052654 68 0 0.0 0.0 0.00 0.00 0.00 72 998.8
20260505052155 68 0 0.0 0.0 0.00 0.00 0.00 71 998.9
20260505051654 68 0 0.0 0.0 0.00 0.00 0.00 71 998.8
20260505051155 68 0 0.0 0.0 0.00 0.00 0.00 71 998.7
20260505050654 68 0 0.0 0.0 0.00 0.00 0.00 70 998.6